Weather in Hazelbrook

Australia     33°43′20″S   150°27′11″E
temp.,
°C
wind,
m/s
gust,
m/s
humid.,
%
clouds,
%
prec.,
mm/h
press.,
hPa
HPBL,
m
7 may, fri
fri701:00+14ssw2699100 1.0 1012381
04:00+14sw2799100 2.5 1011482
07:00+15sw2898100 2.2 1012496
10:00+16sw279589 2.5 1012609
13:00+17sw258674 0.1 1010595
16:00+16sw2491100 0.3 1010289
19:00+14w119597 0.0 101224
22:00+14wnw119481 0.0 101223
8 may, sat
sat801:00+14wnw119425 0.0 101126
04:00+14wnw229179 0.0 101144
07:00+12w229272 0.0 101447
10:00+20w1359100 0.0 1013524
13:00+22wsw1347100 0.0 10121499
16:00+19ese1170100 0.3 101318
19:00+14wnw2183100 0.1 101619
22:00+14wnw2178100 0.1 101831
9 may, sun
sun901:00+13w217999 0.0 101825
04:00+12w2179100 0.0 101833
07:00+13w2173100 0.0 101933
10:00+18w0153100 0.0 1019333
13:00+18e1166100 0.0 1017103
16:00+17e1173100 0.0 101641
19:00+13nw1193100 0.3 101815
22:00+12wnw119237 0.3 101821
10 may, mon
mon1001:00+11w229249 0.0 101738
04:00+11wnw229294 0.0 101649
07:00+11wnw2388100 0.0 101667
10:00+19w37558 0.0 1014952
13:00+20w59472 0.0 10121924
16:00+18w3958100 0.0 10131369
19:00+14w1280100 0.0 101690
22:00+12w127192 0.0 101851
11 may, tue
tue1101:00+9w21820 0.0 102029
04:00+8w21870 0.0 102125
07:00+8w118799 0.0 102422
10:00+11se138499 0.1 1025422
13:00+11sse1484100 0.3 1025573
16:00+10sse1484100 0.3 1027522
19:00+9s149199 0.3 1029307
22:00+9sw139095 0.3 1030117